Location: Davayat
(45.9471°N, 3.1105°E)
Time: 18:15:05
(UTC+00:00)

AQUARIUS - Pass Details

Date: 01 December 2020
Orbit: 650 x 652 km, 98.0° (Epoch: 17 January)

Event Time Altitude Azimuth Distance (km) Brightness Sun altitude
Rises 16:49:56 0° 153° (SSE) 2,961 7.5 -7.9°
Reaches altitude 10° 16:52:10 10° 149° (SSE) 2,055 6.7 -8.3°
Maximum altitude 16:56:32 55° 72° (ENE) 789 4.3 -9.0°
Drops below altitude 10° 17:00:57 10° 355° (N) 2,070 6.6 -9.7°
Sets 17:03:12 0° 351° (N) 2,985 7.4 -10.0°
